Temperature
9 7 7 8 8 9 9 9 8 9 10 9 8 8 9 9 9 9 9 9 10 10 10 10 9 9 9 9 9 9 9 9 9 9 9 9 9 9 9 9 10 10 10 10
8 8 9 9 9 9 9 8 8 8 9 9 8 8 9 9 9 9 9 9 9 9 9 9 9 9 9 9 9 9 9 9 9 9 9 8 8 9 9 9 9 10 10 10
8 9 10 10 9 9 9 8 8 8 8 9 8 8 8 9 9 9 9 9 9 9 9 9 9 9 9 9 8 8 8 8 8 8 8 8 8 8 8 8 9 9 9 9
8 9 9 9 9 9 8 9 9 8 7 6 7 7 8 8 8 8 8 9 9 9 9 9 9 8 8 8 8 8 8 8 8 8 8 8 8 8 8 8 8 8 9 9
8 9 9 9 9 9 8 9 8 8 7 6 6 6 7 7 8 8 8 8 9 9 9 8 8 8 8 8 8 8 8 8 8 8 7 7 7 7 7 8 8 8 8 8
8 9 9 9 9 9 9 8 8 6 6 7 7 6 7 6 8 8 8 8 8 8 8 8 8 8 8 8 8 8 7 7 7 7 7 7 7 7 7 7 7 7 8 8
8 8 9 9 9 8 8 7 6 6 6 7 7 6 7 7 8 8 7 8 8 8 8 8 8 8 8 7 7 7 7 7 7 7 7 7 7 7 7 7 7 7 7 7
7 7 8 8 8 8 7 7 7 7 7 6 6 6 7 8 8 8 8 8 8 8 8 7 7 7 7 7 7 7 7 7 7 7 7 6 6 6 6 6 7 7 7 7
7 7 8 8 8 8 7 6 7 6 6 6 6 6 7 8 7 7 7 7 7 7 7 7 7 7 7 7 7 7 7 6 6 6 6 6 6 6 6 6 6 6 7 7
7 7 7 8 8 8 8 7 5 6 6 7 7 6 6 7 7 6 6 6 7 7 7 7 7 7 7 7 7 7 6 6 6 6 6 6 6 6 6 6 6 6 6 6
7 6 6 7 7 7 7 7 6 5 5 6 6 7 7 7 7 6 6 7 7 7 7 7 7 7 7 7 6 6 6 6 6 6 6 5 6 6 6 6 6 6 6 6
6 5 5 6 7 7 7 7 6 6 6 5 5 6 8 7 7 6 6 7 7 7 7 7 7 6 6 6 6 6 6 6 5 5 5 5 5 5 5 5 6 5 5 6
5 5 5 6 6 6 6 6 6 5 5 4 5 6 7 6 6 7 7 7 7 7 7 7 6 6 6 6 6 6 5 5 5 5 5 5 5 5 5 5 5 5 5 5
6 4 4 6 6 5 5 6 6 5 4 4 5 6 6 6 6 6 7 7 7 7 6 6 6 6 6 6 5 5 5 5 5 5 5 5 5 5 5 5 5 5 5 5
4 3 3 4 5 5 5 5 5 5 5 5 5 5 6 6 6 6 7 7 6 6 6 6 6 6 5 5 5 5 5 5 5 5 5 5 5 5 5 5 5 5 5 4
3 3 3 3 4 4 4 5 5 5 5 5 5 6 6 6 6 6 6 6 6 6 6 6 6 5 5 5 5 5 5 5 5 5 5 5 4 4 5 5 5 5 4 4
2 2 3 3 4 4 4 4 5 4 5 5 5 6 6 5 5 5 6 6 5 6 6 5 5 5 5 5 5 5 4 4 4 4 4 4 4 4 4 4 4 4 4 4
2 2 2 2 3 3 5 5 5 5 5 5 5 6 5 5 6 6 6 6 6 6 5 5 5 5 5 5 4 4 4 4 4 4 4 4 4 3 3 3 4 4 4 4
2 2 1 2 2 3 4 5 5 4 5 5 5 5 5 5 5 5 5 6 6 6 5 5 5 4 4 4 4 4 4 4 3 3 3 3 3 3 3 3 3 3 3 3
2 2 1 1 2 3 4 5 5 5 4 4 4 4 4 4 3 3 5 5 5 5 5 5 4 4 4 3 3 3 3 3 3 3 3 3 3 2 2 2 2 2 2 2
1 0 1 1 2 3 3 4 5 4 4 4 4 4 4 4 4 5 4 4 4 4 4 4 4 3 3 3 3 3 3 3 3 2 2 2 2 2 2 2 2 2 2 2
1 0 0 1 1 2 3 3 3 3 4 4 4 4 4 4 4 4 3 3 3 3 3 3 3 3 2 2 2 2 2 2 2 2 2 2 2 2 1 1 1 1 1 1
0 1 1 1 2 2 3 3 3 3 3 3 4 4 4 3 3 3 2 3 3 2 2 2 2 2 2 2 2 2 2 1 1 1 1 1 1 1 1 1 1 1 1 1
-0 0 0 -0 0 1 2 2 2 3 3 3 3 3 3 2 2 2 2 1 2 2 2 2 2 2 1 1 1 1 1 1 1 1 1 1 1 1 1 0 0 0 -0 -0
-1 -0 -1 -1 -0 1 1 2 2 2 2 2 2 2 2 2 1 1 1 1 1 1 1 1 1 1 1 1 1 0 0 0 1 0 0 0 0 -0 -0 -0 -1 -1 -1 -1
-1 -1 -1 -0 0 0 1 1 1 1 1 1 1 1 1 1 1 1 0 0 0 0 0 0 0 0 -0 -0 -0 -0 -0 -0 -0 -0 -0 -0 -1 -1 -1 -1 -1 -1 -1 -1
Wind_Speed
2 2 3 6 7 5 3 4 6 7 4 2 6 10 11 7 5 5 5 5 4 5 5 2 1 0 1 1 2 2 3 3 4 3 3 2 2 2 1 2 2 4 5 5
2 4 8 5 4 4 3 4 5 6 3 3 6 10 9 6 5 5 5 5 4 4 3 2 1 0 1 1 2 2 3 3 4 3 2 2 2 2 1 1 2 3 5 5
7 5 3 4 3 3 5 5 5 5 6 3 4 8 6 4 2 2 3 3 3 3 3 2 2 2 2 2 2 2 3 3 4 5 4 4 3 2 1 1 2 1 3 4
5 4 2 3 4 5 6 6 6 4 3 4 1 5 8 5 4 3 4 3 3 3 2 2 2 2 3 3 2 2 3 3 4 5 5 6 4 3 2 1 1 2 2 3
5 3 3 4 6 6 6 3 4 3 3 4 2 3 8 3 5 6 5 3 3 2 2 2 2 3 2 2 2 2 3 3 4 5 6 5 4 3 2 2 3 2 1 2
6 4 4 5 3 4 2 2 2 3 2 3 4 5 7 4 5 4 4 3 3 2 1 1 1 1 1 1 2 3 3 3 3 4 5 6 6 5 4 3 3 2 1 1
5 4 3 2 1 1 3 4 3 4 2 6 2 4 8 7 5 4 4 4 3 2 2 1 1 2 2 2 3 3 3 3 3 4 4 5 6 6 6 5 4 3 2 2
2 6 5 4 5 4 3 5 5 4 5 5 3 6 7 5 3 2 2 3 2 2 2 2 2 2 3 3 3 4 3 3 3 3 3 3 4 4 3 3 3 4 3 3
4 6 3 3 3 6 4 4 5 4 2 4 6 6 7 3 2 1 1 1 2 2 3 3 2 2 3 3 4 4 4 3 3 3 3 2 3 3 3 3 3 2 2 2
3 5 4 2 1 2 4 5 4 3 3 5 6 5 5 6 5 3 3 3 3 3 2 2 2 2 2 3 3 4 4 4 3 3 3 2 3 3 4 4 4 3 4 4
2 3 4 2 5 6 3 3 4 4 4 4 4 7 6 6 6 5 6 5 4 4 3 3 3 3 2 2 2 3 3 3 3 3 3 2 2 2 3 3 4 4 4 4
1 2 4 7 5 4 5 6 6 4 5 4 4 8 5 4 4 4 5 4 4 4 3 3 3 3 2 2 2 2 3 3 3 3 2 2 2 2 3 4 4 4 4 4
1 1 2 5 3 1 2 3 4 3 3 4 5 8 4 2 2 3 4 4 3 3 2 2 2 2 2 2 2 2 3 3 3 3 3 3 3 3 4 4 4 4 4 3
0 3 6 8 6 4 6 7 5 4 4 6 9 11 9 7 6 5 4 4 3 3 2 2 3 2 2 2 2 3 3 3 2 2 3 3 3 4 4 4 4 5 4 4
2 5 7 10 9 7 10 11 9 10 10 10 10 11 12 9 8 7 5 3 3 2 2 3 3 3 2 2 2 2 2 2 2 2 2 2 2 2 2 3 4 4 5 5
1 4 4 8 8 8 12 13 12 13 11 12 12 13 10 6 4 4 5 5 4 4 3 3 3 3 3 3 3 2 2 2 2 2 2 1 1 1 1 2 3 3 3 4
4 4 3 7 6 6 10 11 11 9 9 9 13 12 6 3 5 6 6 6 6 5 4 3 3 4 4 3 3 3 2 2 2 2 1 1 1 1 2 1 1 2 3 3
8 6 4 5 3 9 9 5 9 10 12 11 10 7 6 6 5 4 4 6 5 4 4 3 3 3 2 2 2 2 1 2 2 1 1 1 1 1 2 1 1 1 1 2
10 8 5 4 6 10 9 5 4 6 9 7 9 7 4 1 1 2 2 2 4 4 3 3 3 3 2 2 2 2 1 1 1 1 1 1 1 1 1 2 2 1 1 2
3 6 6 5 6 8 6 4 4 3 7 5 5 6 4 3 2 5 2 0 1 1 1 1 1 2 2 1 2 2 2 1 1 1 1 1 1 1 2 2 2 1 1 2
1 3 7 8 8 8 5 5 2 4 6 4 3 4 5 6 6 3 2 1 2 2 2 2 3 2 1 1 2 2 1 0 1 1 1 1 1 1 1 1 1 1 1 1
5 4 5 5 7 8 3 1 2 5 3 2 2 2 2 2 2 2 2 2 2 3 3 3 3 2 2 2 3 2 1 1 1 1 1 1 1 1 1 1 1 1 1 1
5 5 4 6 6 4 2 2 3 1 1 2 1 1 2 3 3 3 2 2 2 3 3 3 3 3 2 2 2 2 1 1 1 2 1 1 2 2 1 1 1 1 1 1
5 3 4 5 6 7 6 5 4 3 2 2 1 1 3 3 3 2 2 2 3 3 2 3 4 3 2 2 2 1 0 1 1 1 1 1 2 2 2 2 1 1 1 1
6 3 4 7 8 6 6 4 4 4 3 2 2 2 2 3 3 2 2 2 2 2 2 3 3 2 1 2 2 2 1 1 2 1 1 2 2 2 2 2 2 2 2 2
6 6 6 8 6 5 7 6 3 2 2 1 1 2 2 3 3 2 2 2 2 2 3 3 3 2 2 2 2 2 2 1 2 2 2 2 2 2 2 2 3 4 3 5
Wind_Direction
140 102 219 223 208 209 209 231 265 266 265 273 262 273 285 288 274 267 267 266 270 273 275 267 259 172 106 96 129 138 140 138 129 126 124 127 135 124 107 99 110 124 128 134
69 242 237 228 218 226 236 264 276 288 287 255 279 285 283 274 258 247 245 253 254 274 291 280 266 183 192 188 160 151 152 143 140 144 130 127 125 115 89 49 72 112 126 133
203 239 233 203 220 235 245 229 247 270 318 307 306 306 294 290 278 268 257 252 249 245 245 239 218 213 194 184 179 172 158 139 137 131 116 104 84 72 68 61 58 76 117 131
239 254 224 216 227 206 253 235 237 262 316 295 337 296 292 288 300 287 277 276 262 253 235 227 212 208 203 197 180 165 153 144 140 137 138 139 142 148 165 159 113 72 103 121
248 231 212 226 233 201 232 241 233 236 225 290 259 227 285 301 282 277 264 260 261 244 216 214 209 205 198 171 162 161 149 154 147 147 152 149 146 141 125 115 109 98 101 126
249 248 218 221 236 205 222 21 26 50 83 280 235 198 277 255 245 263 251 247 256 242 215 216 218 166 140 137 143 137 143 150 151 152 153 154 155 149 144 144 137 138 142 124
293 270 239 188 239 30 86 81 18 346 327 254 240 209 251 251 245 234 229 233 243 227 195 190 197 174 160 158 154 143 148 154 155 156 163 169 168 165 170 170 166 165 173 176
268 280 237 204 192 194 203 157 167 222 242 278 288 239 254 262 270 244 213 216 217 220 204 199 199 181 181 178 167 162 164 166 162 165 172 170 170 170 176 176 172 183 191 186
212 261 286 222 188 159 167 198 186 160 242 268 269 278 298 267 304 300 222 198 229 234 212 198 192 184 188 185 182 173 171 168 172 179 177 170 173 171 179 178 172 186 196 179
188 261 276 281 120 215 178 161 123 162 212 259 279 266 251 247 253 252 242 237 245 242 226 194 184 192 200 190 184 169 174 177 180 181 183 184 182 182 183 177 179 192 198 181
201 225 290 310 212 212 181 181 178 182 194 199 261 268 235 225 225 222 229 233 233 230 229 210 199 195 185 160 164 166 172 173 178 183 183 184 191 186 184 192 194 195 195 183
204 179 255 256 259 233 201 196 168 186 233 209 229 268 279 243 236 219 227 236 240 226 220 209 197 178 170 171 172 178 185 185 191 187 179 191 197 195 197 202 198 191 191 186
207 163 314 326 321 334 245 228 203 187 180 201 217 262 303 326 288 251 234 234 238 228 208 195 187 183 186 190 192 193 196 198 197 187 186 198 205 207 210 207 196 187 189 186
35 199 210 232 250 247 264 261 236 199 216 231 232 253 277 275 264 259 244 224 218 214 199 191 198 202 203 205 203 197 204 201 191 180 188 203 214 217 218 209 195 190 188 189
124 236 246 259 265 260 260 262 247 230 224 229 248 249 258 250 242 240 234 210 191 197 210 203 205 202 200 212 221 205 202 198 184 172 198 219 239 228 205 203 199 193 189 195
204 241 270 276 266 265 269 261 250 245 239 240 254 263 258 252 228 234 221 197 197 211 219 209 200 194 200 210 218 212 207 199 178 184 227 257 275 278 252 221 198 188 192 194
205 207 246 269 284 302 268 242 229 233 227 218 239 251 250 237 224 223 211 195 200 206 212 210 207 205 211 214 211 206 200 183 174 189 224 241 251 272 275 262 186 195 200 196
201 204 221 261 277 248 250 225 216 229 241 231 238 241 226 228 233 224 203 190 201 203 201 206 207 204 206 200 195 185 171 164 167 184 222 237 244 263 276 258 221 227 223 211
207 198 207 216 244 265 279 260 222 225 254 243 236 239 229 197 58 311 253 206 205 200 195 199 198 186 172 176 176 148 135 144 164 203 232 247 232 236 248 252 249 256 242 244
188 193 203 212 234 247 257 278 255 204 259 272 237 228 206 153 201 251 245 268 93 111 124 144 142 132 140 161 144 137 143 143 222 251 261 269 248 229 242 248 253 261 237 245
232 207 214 225 238 259 282 302 18 190 260 298 245 227 200 200 219 213 150 92 97 92 85 93 101 107 128 126 114 117 111 217 270 304 349 348 287 251 250 258 265 250 242 226
205 206 214 212 230 253 297 79 200 248 304 303 296 242 207 199 126 111 109 100 99 87 78 86 92 74 59 90 103 95 53 325 17 47 35 0 343 332 344 326 318 300 229 245
222 214 217 212 233 280 298 249 270 308 312 312 336 1 127 120 119 113 103 97 92 89 89 93 99 79 52 69 102 100 344 14 54 59 38 7 6 2 359 351 340 343 324 272
258 240 225 254 270 292 301 305 315 309 295 317 32 55 100 112 119 111 103 91 83 76 84 92 95 86 47 32 53 78 20 40 70 55 22 21 24 10 8 1 353 341 311 291
252 249 250 261 281 298 298 296 298 317 340 20 28 49 107 113 107 109 104 95 87 75 73 85 92 87 46 27 25 14 19 67 69 51 34 22 17 10 3 356 337 313 285 264
244 233 236 254 264 262 278 285 286 290 305 325 13 45 71 104 115 101 101 99 97 85 76 73 69 62 36 29 16 1 4 45 69 40 21 7 359 359 355 352 352 347 329 317
Height
1512 1516 1516 1513 1512 1512 1512 1513 1513 1508 1503 1504 1501 1496 1490 1487 1486 1484 1482 1481 1480 1479 1478 1477 1477 1476 1476 1476 1475 1475 1476 1476 1478 1479 1480 1482 1484 1486 1488 1489 1490 1492 1495 1497
1515 1514 1508 1508 1509 1510 1511 1512 1511 1506 1502 1502 1500 1494 1487 1484 1482 1481 1480 1479 1478 1477 1476 1475 1475 1474 1474 1474 1474 1474 1474 1475 1476 1477 1479 1481 1483 1484 1486 1488 1489 1491 1493 1495
1511 1508 1505 1507 1509 1510 1510 1511 1509 1508 1503 1500 1501 1495 1487 1481 1479 1479 1478 1476 1475 1475 1474 1474 1473 1473 1473 1473 1473 1473 1473 1474 1475 1476 1478 1480 1481 1483 1484 1486 1487 1489 1491 1493
1509 1505 1505 1506 1506 1508 1509 1505 1505 1505 1508 1509 1505 1506 1488 1483 1480 1477 1476 1475 1474 1473 1473 1472 1472 1471 1471 1472 1472 1472 1472 1473 1474 1475 1476 1477 1479 1481 1482 1484 1486 1487 1489 1491
1506 1503 1503 1504 1503 1503 1504 1501 1503 1503 1506 1509 1506 1507 1492 1484 1480 1476 1474 1473 1472 1471 1471 1470 1470 1470 1470 1470 1471 1471 1472 1472 1473 1474 1475 1476 1478 1480 1481 1482 1484 1485 1487 1489
1503 1501 1500 1500 1499 1500 1500 1502 1503 1507 1510 1510 1502 1506 1494 1485 1478 1474 1472 1471 1471 1470 1470 1469 1469 1469 1469 1469 1470 1470 1471 1472 1472 1473 1474 1475 1476 1477 1479 1480 1482 1483 1485 1487
1504 1500 1497 1497 1499 1499 1501 1508 1515 1513 1515 1506 1498 1499 1490 1476 1472 1471 1470 1469 1469 1469 1469 1468 1468 1468 1468 1468 1468 1469 1470 1471 1471 1472 1473 1474 1475 1476 1477 1478 1480 1481 1483 1485
1507 1505 1496 1494 1496 1499 1501 1504 1513 1513 1511 1507 1498 1496 1482 1472 1470 1468 1468 1468 1468 1468 1468 1467 1467 1467 1467 1467 1467 1468 1469 1469 1470 1471 1471 1472 1474 1474 1476 1477 1478 1480 1482 1483
1507 1502 1494 1492 1492 1495 1499 1503 1502 1509 1510 1510 1499 1489 1478 1471 1469 1468 1468 1468 1467 1467 1467 1466 1466 1466 1466 1465 1466 1466 1467 1468 1468 1469 1470 1471 1472 1473 1474 1475 1476 1478 1480 1481
1502 1503 1495 1493 1492 1492 1494 1497 1505 1507 1506 1503 1494 1490 1482 1472 1469 1468 1467 1466 1466 1466 1466 1465 1465 1465 1465 1465 1465 1465 1466 1466 1467 1467 1468 1469 1470 1471 1472 1473 1474 1476 1477 1479
1501 1504 1499 1495 1493 1492 1494 1496 1497 1503 1504 1503 1498 1487 1469 1467 1465 1466 1465 1465 1464 1464 1464 1464 1464 1464 1464 1464 1463 1463 1464 1465 1465 1466 1466 1467 1468 1469 1470 1471 1472 1473 1475 1476
1501 1503 1503 1496 1490 1488 1489 1490 1494 1499 1498 1500 1499 1485 1464 1463 1462 1463 1463 1463 1463 1463 1463 1463 1463 1462 1462 1462 1462 1462 1462 1463 1463 1464 1465 1465 1466 1467 1468 1468 1470 1471 1472 1473
1500 1503 1503 1496 1494 1491 1490 1489 1489 1492 1496 1499 1497 1481 1464 1463 1462 1461 1462 1461 1461 1461 1461 1461 1461 1460 1460 1460 1460 1460 1460 1461 1461 1462 1462 1463 1464 1464 1465 1466 1467 1468 1469 1470
1497 1501 1502 1497 1490 1490 1490 1487 1487 1491 1494 1492 1485 1475 1466 1464 1462 1460 1460 1459 1460 1459 1459 1459 1459 1459 1458 1459 1459 1459 1459 1459 1459 1459 1460 1460 1460 1461 1462 1463 1463 1464 1465 1467
1497 1499 1496 1491 1488 1488 1486 1483 1483 1484 1482 1482 1473 1470 1462 1460 1459 1457 1457 1457 1457 1457 1457 1457 1457 1457 1457 1457 1457 1457 1457 1458 1457 1457 1457 1457 1458 1458 1459 1459 1460 1461 1462 1464
1496 1497 1494 1491 1486 1485 1481 1477 1477 1475 1473 1471 1467 1463 1456 1455 1455 1454 1454 1454 1454 1454 1455 1454 1454 1454 1455 1455 1455 1455 1455 1455 1456 1455 1455 1455 1455 1455 1456 1456 1457 1458 1459 1460
1495 1496 1495 1491 1485 1483 1478 1468 1468 1467 1464 1464 1461 1455 1453 1453 1452 1451 1450 1451 1451 1451 1452 1452 1452 1452 1452 1452 1453 1453 1453 1453 1453 1453 1454 1454 1453 1453 1453 1453 1453 1454 1455 1456
1490 1492 1494 1490 1487 1486 1464 1457 1457 1457 1454 1454 1451 1449 1449 1449 1448 1448 1448 1448 1448 1448 1449 1449 1449 1450 1450 1450 1450 1451 1451 1451 1451 1451 1452 1452 1452 1451 1451 1451 1451 1451 1452 1453
1480 1485 1489 1487 1483 1472 1461 1455 1454 1455 1451 1448 1448 1446 1447 1447 1447 1447 1446 1446 1445 1446 1446 1446 1447 1447 1448 1448 1448 1448 1449 1449 1449 1449 1449 1449 1450 1449 1449 1448 1448 1449 1449 1449
1476 1479 1483 1483 1478 1469 1456 1451 1448 1450 1450 1445 1444 1444 1444 1445 1448 1446 1444 1444 1443 1443 1444 1444 1445 1445 1445 1446 1446 1446 1446 1446 1446 1447 1447 1447 1447 1447 1447 1446 1446 1446 1446 1446
1479 1480 1480 1477 1473 1462 1454 1450 1448 1453 1448 1443 1442 1441 1441 1442 1442 1442 1442 1442 1442 1442 1442 1443 1443 1443 1444 1444 1444 1444 1444 1444 1444 1445 1445 1445 1445 1444 1444 1443 1443 1443 1443 1443
1474 1475 1474 1472 1471 1463 1452 1450 1452 1448 1444 1442 1440 1439 1439 1439 1439 1440 1440 1440 1440 1441 1441 1441 1441 1442 1442 1442 1442 1442 1442 1442 1443 1442 1442 1443 1442 1442 1441 1441 1440 1440 1440 1440
1468 1466 1464 1464 1460 1453 1450 1448 1447 1445 1443 1441 1439 1439 1438 1438 1438 1439 1440 1440 1439 1440 1440 1440 1440 1440 1441 1441 1441 1441 1441 1441 1441 1440 1440 1440 1440 1439 1439 1439 1438 1438 1437 1437
1463 1460 1460 1459 1454 1451 1449 1446 1445 1444 1442 1440 1438 1438 1437 1437 1437 1438 1438 1438 1438 1439 1439 1439 1439 1439 1439 1440 1440 1440 1440 1440 1439 1438 1438 1438 1437 1436 1436 1436 1436 1435 1435 1435
1459 1458 1457 1455 1451 1448 1445 1444 1444 1442 1440 1438 1438 1438 1437 1437 1437 1437 1437 1437 1437 1438 1438 1438 1438 1438 1438 1438 1438 1438 1438 1438 1438 1437 1436 1435 1435 1434 1434 1434 1433 1433 1433 1433
1453 1454 1454 1450 1447 1447 1444 1442 1442 1440 1439 1438 1437 1436 1436 1436 1436 1436 1437 1437 1437 1437 1437 1437 1437 1437 1437 1437 1437 1437 1437 1437 1436 1435 1434 1434 1433 1433 1432 1431 1431 1430 1430 1430